DW6610 Weather Reports


time (UTC)temp
C
wind
direction
speed
KPH
gust
KPH
rain 1hr
cm
rain 24hr
cm
rain mn
cm
humidity
%
barometer
mb
20260906204621 38 118 3.2 16.1 0.00 0.00 0.00 47 1010.9
20260906204053 38 212 4.8 16.1 0.00 0.00 0.00 45 1010.9
20260906203550 38 195 6.4 12.9 0.00 0.00 0.00 46 1010.9
20260906203104 38 86 6.4 12.9 0.00 0.00 0.00 48 1010.9
20260906202549 38 131 3.2 12.9 0.00 0.00 0.00 47 1011.0
20260906202050 38 89 3.2 12.9 0.00 0.00 0.00 48 1011.2
20260906201603 37 83 1.6 9.7 0.00 0.00 0.00 49 1011.2
20260906201050 37 174 3.2 14.5 0.00 0.00 0.00 48 1011.2
20260906200550 38 159 3.2 16.1 0.00 0.00 0.00 47 1011.1
20260906200104 38 58 6.4 16.1 0.00 0.00 0.00 45 1011.2
20260906195550 38 195 4.8 16.1 0.00 0.00 0.00 46 1011.2
20260906195052 38 185 3.2 16.1 0.00 0.00 0.00 48 1011.2
20260906194609 38 156 3.2 17.7 0.00 0.00 0.00 46 1011.1
20260906194049 38 204 4.8 17.7 0.00 0.00 0.00 46 1011.1
20260906193550 38 111 4.8 17.7 0.00 0.00 0.00 45 1011.2
20260906193104 38 131 3.2 17.7 0.00 0.00 0.00 49 1011.2
20260906192550 37 198 3.2 12.9 0.00 0.00 0.00 48 1011.5
20260906192050 38 104 4.8 12.9 0.00 0.00 0.00 46 1011.7
20260906191612 38 141 4.8 12.9 0.00 0.00 0.00 47 1011.7
20260906191050 38 85 4.8 9.7 0.00 0.00 0.00 46 1011.9
20260906190553 38 146 3.2 11.3 0.00 0.00 0.00 50 1011.8
20260906185551 37 189 4.8 14.5 0.00 0.00 0.00 50 1012.2
20260906185051 38 173 4.8 14.5 0.00 0.00 0.00 47 1012.1
20260906184615 38 73 4.8 16.1 0.00 0.00 0.00 48 1012.1
20260906184050 38 143 4.8 16.1 0.00 0.00 0.00 46 1012.1
20260906183550 38 121 3.2 11.3 0.00 0.00 0.00 49 1012.3
20260906183113 38 125 4.8 12.9 0.00 0.00 0.00 47 1012.3
20260906182552 38 105 4.8 12.9 0.00 0.00 0.00 48 1012.5
20260906182054 38 189 4.8 9.7 0.00 0.00 0.00 50 1012.5
20260906181604 38 213 4.8 9.7 0.00 0.00 0.00 48 1012.7
20260906181051 38 181 4.8 14.5 0.00 0.00 0.00 49 1012.8
20260906180551 38 150 6.4 14.5 0.00 0.00 0.00 49 1012.8
20260906180122 38 108 3.2 11.3 0.00 0.00 0.00 49 1012.9
20260906175553 38 116 3.2 9.7 0.00 0.00 0.00 51 1013.0
20260906175054 38 96 3.2 9.7 0.00 0.00 0.00 48 1013.1
20260906174623 38 197 3.2 12.9 0.00 0.00 0.00 48 1013.2
20260906173552 38 136 3.2 12.9 0.00 0.00 0.00 50 1013.4
20260906173107 38 172 4.8 12.9 0.00 0.00 0.00 50 1013.4
20260906172552 37 120 3.2 11.3 0.00 0.00 0.00 52 1013.4
20260906172051 38 174 3.2 11.3 0.00 0.00 0.00 50 1013.5
20260906171616 38 186 3.2 11.3 0.00 0.00 0.00 49 1013.6
20260906171053 38 104 1.6 12.9 0.00 0.00 0.00 51 1013.6
20260906170551 37 117 4.8 12.9 0.00 0.00 0.00 55 1013.7
20260906170121 38 141 3.2 9.7 0.00 0.00 0.00 51 1013.7
20260906165550 38 174 3.2 9.7 0.00 0.00 0.00 55 1013.7
20260906165051 38 108 3.2 8.0 0.00 0.00 0.00 50 1013.8
20260906164605 38 38 3.2 9.7 0.00 0.00 0.00 54 1013.9
20260906164052 38 143 3.2 9.7 0.00 0.00 0.00 51 1013.9
20260906163553 37 108 3.2 9.7 0.00 0.00 0.00 54 1013.9
20260906163100 37 150 3.2 8.0 0.00 0.00 0.00 50 1014.0
20260906162552 37 160 1.6 6.4 0.00 0.00 0.00 52 1014.0
20260906162051 37 123 1.6 6.4 0.00 0.00 0.00 54 1013.9
20260906161624 37 103 3.2 8.0 0.00 0.00 0.00 53 1014.1
20260906161051 37 133 1.6 8.0 0.00 0.00 0.00 56 1014.0
20260906160552 37 0 3.2 4.8 0.00 0.00 0.00 58 1014.0
20260906160101 37 0 1.6 4.8 0.00 0.00 0.00 60 1014.1
20260906155555 37 83 1.6 4.8 0.00 0.00 0.00 57 1014.1
20260906155051 36 0 0.0 4.8 0.00 0.00 0.00 57 1014.1
20260906154559 36 126 1.6 4.8 0.00 0.00 0.00 61 1014.0
20260906154052 37 155 0.0 4.8 0.00 0.00 0.00 58 1014.0
20260906153551 37 94 0.0 3.2 0.00 0.00 0.00 60 1014.0
20260906153111 36 128 0.0 3.2 0.00 0.00 0.00 60 1013.9
20260906152551 36 137 0.0 3.2 0.00 0.00 0.00 62 1014.0
20260906152051 36 137 0.0 1.6 0.00 0.00 0.00 60 1013.9
20260906151604 35 86 0.0 3.2 0.00 0.00 0.00 61 1013.9
20260906151051 35 76 0.0 3.2 0.00 0.00 0.00 63 1014.0
20260906150551 35 0 0.0 3.2 0.00 0.00 0.00 67 1014.1
20260906150109 35 72 0.0 4.8 0.00 0.00 0.00 64 1014.1
20260906145551 34 102 0.0 4.8 0.00 0.00 0.00 66 1014.1
20260906145052 34 102 1.6 4.8 0.00 0.00 0.00 64 1014.1
20260906144559 33 109 1.6 4.8 0.00 0.00 0.00 66 1014.1
20260906144050 33 69 0.0 4.8 0.00 0.00 0.00 66 1014.1
20260906143552 33 50 0.0 3.2 0.00 0.00 0.00 67 1014.2
20260906143106 33 120 0.0 3.2 0.00 0.00 0.00 68 1014.3
20260906142551 33 212 0.0 3.2 0.00 0.00 0.00 67 1014.1
20260906142052 33 126 0.0 3.2 0.00 0.00 0.00 70 1014.3
20260906141621 32 157 0.0 3.2 0.00 0.00 0.00 68 1014.4
20260906141051 32 0 0.0 3.2 0.00 0.00 0.00 73 1014.4
20260906140551 32 70 0.0 3.2 0.00 0.00 0.00 71 1014.4
20260906140100 31 79 0.0 4.8 0.00 0.00 0.00 73 1014.4
20260906135551 31 85 0.0 4.8 0.00 0.00 0.00 74 1014.4
20260906135050 31 77 0.0 3.2 0.00 0.00 0.00 74 1014.4
20260906134559 31 134 0.0 3.2 0.00 0.00 0.00 76 1014.4
20260906134051 30 0 0.0 6.4 0.00 0.00 0.00 78 1014.5
20260906133551 30 84 0.0 6.4 0.00 0.00 0.00 78 1014.5
20260906133108 29 54 0.0 8.0 0.00 0.00 0.00 79 1014.5
20260906132552 28 0 1.6 8.0 0.00 0.00 0.00 80 1014.5
20260906132051 28 72 1.6 6.4 0.00 0.00 0.00 81 1014.4
20260906131610 28 49 0.0 6.4 0.00 0.00 0.00 83 1014.5
20260906131051 27 51 0.0 6.4 0.00 0.00 0.00 85 1014.5
20260906130551 27 77 0.0 4.8 0.00 0.00 0.00 86 1014.6
20260906125553 26 0 0.0 4.8 0.00 0.00 0.00 87 1014.6
20260906125051 26 94 1.6 4.8 0.00 0.00 0.00 87 1014.7
20260906124605 26 114 1.6 4.8 0.00 0.00 0.00 88 1014.6
20260906124051 26 0 0.0 3.2 0.00 0.00 0.00 89 1014.6
20260906123551 25 199 0.0 1.6 0.00 0.00 0.00 90 1014.7
20260906123107 25 0 0.0 1.6 0.00 0.00 0.00 91 1014.6
20260906122552 25 97 0.0 1.6 0.00 0.00 0.00 91 1014.5
20260906122052 25 0 0.0 3.2 0.00 0.00 0.00 92 1014.5
20260906121607 25 0 0.0 3.2 0.00 0.00 0.00 92 1014.3
20260906121051 25 0 0.0 3.2 0.00 0.00 0.00 93 1014.5
20260906120551 24 0 0.0 6.4 0.00 0.00 0.00 95 1014.4
20260906120111 24 55 1.6 6.4 0.00 0.00 0.00 96 1014.5
20260906115551 23 117 0.0 1.6 0.00 0.00 0.00 97 1014.5
20260906115053 23 113 0.0 1.6 0.00 0.00 0.00 97 1014.1
20260906114600 23 0 0.0 1.6 0.00 0.00 0.00 97 1014.0
20260906114051 23 0 0.0 1.6 0.00 0.00 0.00 96 1013.8
20260906113551 23 0 0.0 1.6 0.00 0.00 0.00 96 1013.8
20260906113058 23 0 0.0 1.6 0.00 0.00 0.00 96 1013.7
20260906112554 24 0 0.0 1.6 0.00 0.00 0.00 96 1013.6
20260906112051 24 0 0.0 1.6 0.00 0.00 0.00 96 1013.5
20260906111600 24 148 0.0 0.0 0.00 0.00 0.00 96 1013.3
20260906111051 24 0 0.0 0.0 0.00 0.00 0.00 96 1013.4
20260906110551 24 0 0.0 0.0 0.00 0.00 0.00 96 1013.2
20260906110103 24 0 0.0 0.0 0.00 0.00 0.00 95 1013.2
20260906105551 24 0 0.0 0.0 0.00 0.00 0.00 95 1013.0
20260906105052 24 0 0.0 0.0 0.00 0.00 0.00 95 1013.0
20260906104604 24 0 0.0 0.0 0.00 0.00 0.00 94 1012.9
20260906104051 24 0 0.0 0.0 0.00 0.00 0.00 94 1012.9
20260906103554 25 0 0.0 0.0 0.00 0.00 0.00 94 1012.9
20260906103109 25 0 0.0 0.0 0.00 0.00 0.00 95 1012.9
20260906102551 25 0 0.0 1.6 0.00 0.00 0.00 95 1013.0
20260906102051 25 0 0.0 1.6 0.00 0.00 0.00 95 1012.9
20260906101620 25 148 0.0 0.0 0.00 0.00 0.00 95 1012.9
20260906101051 25 0 0.0 0.0 0.00 0.00 0.00 95 1012.8
20260906100551 25 0 0.0 0.0 0.00 0.00 0.00 96 1012.8
20260906095551 25 0 0.0 1.6 0.00 0.00 0.00 96 1012.8
20260906095051 24 149 0.0 1.6 0.00 0.00 0.00 96 1012.8
20260906094607 24 0 0.0 0.0 0.00 0.00 0.00 96 1012.9
20260906094051 24 0 0.0 0.0 0.00 0.00 0.00 96 1012.9
20260906093552 24 0 0.0 0.0 0.00 0.00 0.00 96 1012.9
20260906093100 24 0 0.0 0.0 0.00 0.00 0.00 96 1012.8
20260906092551 24 0 0.0 0.0 0.00 0.00 0.00 96 1012.7
20260906092051 24 0 0.0 0.0 0.00 0.00 0.00 96 1012.7
20260906091603 24 0 0.0 0.0 0.00 0.00 0.00 96 1012.6
20260906091051 24 0 0.0 0.0 0.00 0.00 0.00 96 1012.6
20260906090553 24 0 0.0 1.6 0.00 0.00 0.00 96 1012.6
20260906085551 24 0 0.0 1.6 0.00 0.00 0.00 96 1012.7
20260906085051 24 0 0.0 1.6 0.00 0.00 0.00 96 1012.7
20260906084602 24 0 0.0 0.0 0.00 0.00 0.00 96 1012.6
20260906084052 24 0 0.0 0.0 0.00 0.00 0.00 95 1012.6
20260906083551 25 0 0.0 0.0 0.00 0.00 0.00 95 1012.6
20260906083105 25 0 0.0 0.0 0.00 0.00 0.00 95 1012.5
20260906082555 25 0 0.0 0.0 0.00 0.00 0.00 95 1012.6
20260906082119 25 0 0.0 0.0 0.00 0.00 0.00 95 1012.7
20260906081600 25 0 0.0 0.0 0.00 0.00 0.00 94 1012.6
20260906081051 25 0 0.0 0.0 0.00 0.00 0.00 94 1012.6
20260906080552 25 0 0.0 0.0 0.00 0.00 0.00 94 1012.7
20260906080106 25 0 0.0 1.6 0.00 0.00 0.00 94 1012.6
20260906075551 25 0 0.0 1.6 0.00 0.00 0.00 94 1012.6
20260906075051 25 0 0.0 0.0 0.00 0.00 0.00 94 1012.7
20260906074602 25 0 0.0 0.0 0.00 0.00 0.00 94 1012.7
20260906074051 25 0 0.0 0.0 0.00 0.00 0.00 94 1012.6
20260906073554 25 0 0.0 0.0 0.00 0.00 0.00 94 1012.6
20260906073102 25 0 0.0 1.6 0.00 0.00 0.00 94 1012.6
20260906072551 25 0 0.0 1.6 0.00 0.00 0.00 94 1012.6
20260906072051 25 0 0.0 3.2 0.00 0.00 0.00 94 1012.7
20260906071605 25 0 0.0 3.2 0.00 0.00 0.00 94 1012.6
20260906071052 25 0 0.0 3.2 0.00 0.00 0.00 95 1012.6
20260906070552 25 57 0.0 1.6 0.00 0.00 0.00 95 1012.7
20260906070108 25 0 0.0 0.0 0.00 0.00 0.00 95 1012.5
20260906065551 25 0 0.0 0.0 0.00 0.00 0.00 95 1012.4
20260906065051 25 0 0.0 0.0 0.00 0.00 0.00 94 1012.4
20260906064603 25 0 0.0 0.0 0.00 0.00 0.00 94 1012.4
20260906064051 25 0 0.0 0.0 0.00 0.00 0.00 94 1012.5
20260906063550 25 0 0.0 0.0 0.00 0.00 0.00 94 1012.5
20260906063100 25 0 0.0 1.6 0.00 0.00 0.00 93 1012.5
20260906062550 25 0 0.0 1.6 0.00 0.00 0.00 94 1012.7
20260906062051 25 108 0.0 1.6 0.00 0.00 0.00 93 1012.7
20260906061601 25 0 0.0 0.0 0.00 0.00 0.00 93 1012.8
20260906061051 25 0 0.0 0.0 0.00 0.00 0.00 93 1012.9
20260906060551 25 0 0.0 1.6 0.00 0.00 0.00 93 1012.9
20260906060136 25 0 0.0 1.6 0.00 0.00 0.00 92 1012.9
20260906055552 26 0 0.0 1.6 0.00 0.00 0.00 93 1012.9
20260906055051 26 0 0.0 1.6 0.00 0.00 0.00 93 1012.9
20260906054612 26 0 0.0 1.6 0.00 0.00 0.00 93 1012.8
20260906054052 26 108 0.0 1.6 0.00 0.00 0.00 92 1012.9
20260906053551 26 0 0.0 1.6 0.00 0.00 0.00 92 1012.9
20260906053101 26 108 0.0 1.6 0.00 0.00 0.00 92 1012.9
20260906052552 26 0 0.0 0.0 0.00 0.00 0.00 92 1012.9
20260906052052 26 0 0.0 0.0 0.00 0.00 0.00 92 1012.9
20260906051602 26 0 0.0 1.6 0.00 0.00 0.00 91 1012.9
20260906051055 26 0 0.0 1.6 0.00 0.00 0.00 90 1012.9
20260906050555 26 0 0.0 1.6 0.00 0.00 0.00 91 1012.8
20260906050108 26 0 0.0 1.6 0.00 0.00 0.00 91 1012.8
20260906045551 26 0 0.0 0.0 0.00 0.00 0.00 91 1012.8
20260906045051 26 0 0.0 0.0 0.00 0.00 0.00 90 1012.8
20260906044601 26 0 0.0 0.0 0.00 0.00 0.00 90 1012.8
20260906044053 26 0 0.0 1.6 0.00 0.00 0.00 90 1012.9
20260906043550 26 0 0.0 1.6 0.00 0.00 0.00 90 1012.7
20260906043102 26 0 0.0 1.6 0.00 0.00 0.00 90 1012.8
20260906042552 26 0 0.0 0.0 0.00 0.00 0.00 91 1012.7
20260906042051 26 0 0.0 0.0 0.00 0.00 0.00 90 1012.8
20260906041602 26 0 0.0 1.6 0.00 0.00 0.00 90 1012.8
20260906041050 27 0 0.0 1.6 0.00 0.00 0.00 89 1012.7
20260906040552 27 0 0.0 1.6 0.00 0.00 0.00 89 1012.8
20260906035551 27 108 0.0 1.6 0.00 0.00 0.00 89 1012.7
20260906035053 27 0 0.0 0.0 0.00 0.00 0.00 89 1012.7
20260906034604 27 0 0.0 0.0 0.00 0.00 0.00 89 1012.8
20260906034051 27 0 0.0 0.0 0.00 0.00 0.00 89 1012.8
20260906033552 27 0 0.0 0.0 0.00 0.00 0.00 89 1012.8
20260906033100 27 0 0.0 0.0 0.00 0.00 0.00 88 1012.9
20260906032551 27 0 0.0 0.0 0.00 0.00 0.00 88 1012.8
20260906032051 27 0 0.0 0.0 0.00 0.00 0.00 87 1012.7
20260906031604 27 0 0.0 0.0 0.00 0.00 0.00 87 1012.7
20260906031051 27 0 0.0 0.0 0.00 0.00 0.00 86 1012.7
20260906030550 27 0 0.0 0.0 0.00 0.00 0.00 86 1012.6
20260906030059 27 0 0.0 0.0 0.00 0.00 0.00 86 1012.5
20260906025551 27 0 0.0 0.0 0.00 0.00 0.00 86 1012.5
20260906025051 28 0 0.0 0.0 0.00 0.00 0.00 86 1012.7
20260906024608 28 0 0.0 1.6 0.00 0.00 0.00 85 1012.8
20260906024051 28 0 0.0 1.6 0.00 0.00 0.00 84 1012.7
20260906023552 28 0 0.0 1.6 0.00 0.00 0.00 82 1012.6
20260906023104 28 0 0.0 1.6 0.00 0.00 0.00 82 1012.5
20260906022551 28 0 0.0 1.6 0.00 0.00 0.00 81 1012.4
20260906022051 28 0 0.0 1.6 0.00 0.00 0.00 81 1012.5
20260906021606 28 0 0.0 1.6 0.00 0.00 0.00 81 1012.4
20260906021052 28 0 0.0 1.6 0.00 0.00 0.00 81 1012.4
20260906020551 29 0 0.0 1.6 0.00 0.00 0.00 81 1012.4
20260906015551 29 119 0.0 1.6 0.00 0.00 0.00 81 1012.2
20260906015052 29 123 0.0 1.6 0.00 0.00 0.00 80 1012.1
20260906014604 30 0 0.0 0.0 0.00 0.00 0.00 80 1012.2
20260906014051 30 0 0.0 0.0 0.00 0.00 0.00 79 1012.1
20260906013553 30 0 0.0 0.0 0.00 0.00 0.00 79 1012.1
20260906013101 30 0 0.0 0.0 0.00 0.00 0.00 79 1012.0
20260906012550 30 0 0.0 0.0 0.00 0.00 0.00 78 1011.9
20260906012051 30 0 0.0 0.0 0.00 0.00 0.00 78 1011.8
20260906011602 30 0 0.0 1.6 0.00 0.00 0.00 77 1011.6
20260906011051 30 0 0.0 1.6 0.00 0.00 0.00 76 1011.6
20260906010551 31 0 0.0 1.6 0.00 0.00 0.00 75 1011.6
20260906010140 31 124 0.0 1.6 0.00 0.00 0.00 75 1011.5
20260906005551 31 0 0.0 1.6 0.00 0.00 0.00 73 1011.5
20260906005052 31 0 0.0 1.6 0.00 0.00 0.00 73 1011.5
20260906004617 31 0 0.0 1.6 0.00 0.00 0.00 72 1011.4
20260906004051 31 0 0.0 1.6 0.00 0.00 0.00 72 1011.3
20260906003551 32 0 0.0 1.6 0.00 0.00 0.00 71 1011.3
20260906003100 32 126 0.0 1.6 0.00 0.00 0.00 70 1011.4
20260906002552 32 127 0.0 1.6 0.00 0.00 0.00 69 1011.3
20260906002052 32 0 0.0 1.6 0.00 0.00 0.00 67 1011.3
20260906001606 33 127 0.0 1.6 0.00 0.00 0.00 65 1011.4
20260906001051 33 0 0.0 1.6 0.00 0.00 0.00 66 1011.3
20260906000551 33 127 0.0 1.6 0.00 0.00 0.00 64 1011.3
20260905235553 35 0 0.0 1.6 0.00 0.00 0.00 56 1011.4
20260905235051 35 0 0.0 1.6 0.00 0.00 0.00 55 1011.4
20260905234601 35 0 0.0 1.6 0.00 0.00 0.00 53 1011.4
20260905234052 36 127 0.0 4.8 0.00 0.00 0.00 52 1011.4
20260905233551 36 0 0.0 4.8 0.00 0.00 0.00 52 1011.5
20260905233059 36 0 0.0 4.8 0.00 0.00 0.00 50 1011.5
20260905232551 37 0 0.0 1.6 0.00 0.00 0.00 50 1011.5
20260905232054 37 123 0.0 1.6 0.00 0.00 0.00 48 1011.5
20260905231557 37 129 0.0 3.2 0.00 0.00 0.00 48 1011.5
20260905231051 37 136 0.0 3.2 0.00 0.00 0.00 49 1011.6
20260905230551 37 0 0.0 3.2 0.00 0.00 0.00 47 1011.6
20260905230103 37 136 0.0 4.8 0.00 0.00 0.00 48 1011.6
20260905225551 37 146 1.6 4.8 0.00 0.00 0.00 47 1011.6
20260905225051 38 129 0.0 4.8 0.00 0.00 0.00 47 1011.6
20260905224601 38 185 0.0 3.2 0.00 0.00 0.00 46 1011.7
20260905224054 37 150 1.6 3.2 0.00 0.00 0.00 46 1011.7
20260905223551 38 125 1.6 3.2 0.00 0.00 0.00 46 1011.7
20260905223104 38 105 0.0 6.4 0.00 0.00 0.00 46 1011.7
20260905222551 38 104 1.6 6.4 0.00 0.00 0.00 49 1011.7
20260905222050 37 92 1.6 6.4 0.00 0.00 0.00 48 1011.7
20260905221602 37 127 1.6 6.4 0.00 0.00 0.00 47 1011.6
20260905221052 37 134 0.0 4.8 0.00 0.00 0.00 47 1011.8
20260905220551 37 147 1.6 4.8 0.00 0.00 0.00 47 1011.7
20260905220104 38 129 1.6 6.4 0.00 0.00 0.00 45 1011.8
20260905215551 38 100 3.2 6.4 0.00 0.00 0.00 48 1011.8
20260905215052 38 124 1.6 6.4 0.00 0.00 0.00 47 1011.8
20260905214601 38 70 1.6 8.0 0.00 0.00 0.00 48 1011.8
20260905214051 38 89 1.6 9.7 0.00 0.00 0.00 51 1011.8
20260905213553 37 105 3.2 9.7 0.00 0.00 0.00 51 1011.8
20260905213101 37 158 3.2 9.7 0.00 0.00 0.00 52 1011.8
20260905212552 37 79 3.2 11.3 0.00 0.00 0.00 51 1011.8
20260905212051 37 153 4.8 11.3 0.00 0.00 0.00 49 1011.8
20260905211613 38 89 3.2 11.3 0.00 0.00 0.00 49 1011.8
20260905211051 39 225 3.2 11.3 0.00 0.00 0.00 46 1011.9
20260905210550 39 33 1.6 9.7 0.00 0.00 0.00 47 1011.8
20260905210120 39 150 1.6 9.7 0.00 0.00 0.00 46 1011.9
20260905205551 39 78 1.6 9.7 0.00 0.00 0.00 47 1012.0
20260905205051 39 61 3.2 9.7 0.00 0.00 0.00 50 1012.1